GW3390 Weather Reports


Display with metric or nautical units.
time (UTC)temp
F
wind
direction
speed
MPH
gust
MPH
rain 1hr
in
rain 24hr
in
rain mn
in
humidity
%
barometer
mb
20260906022101 73 65 1.0 5.0 0.09 0.32 0.32 90 1012.2
20260906021558 73 210 0.0 7.0 0.07 0.30 0.30 89 1012.1
20260906021100 73 360 4.0 7.0 0.02 0.25 0.25 88 1012.3
20260906020559 72 9 1.0 3.0 0.00 0.23 0.23 91 1012.1
20260906020108 73 53 1.0 2.0 0.00 0.23 0.23 92 1011.8
20260906015559 73 53 0.0 1.0 0.00 0.23 0.23 91 1011.5
20260906015059 73 0 0.0 2.0 0.00 0.23 0.23 91 1011.3
20260906014626 73 190 0.0 4.0 0.00 0.23 0.23 91 1011.3
20260906014059 72 190 1.0 4.0 0.00 0.23 0.23 89 1011.3
20260906013559 72 196 1.0 4.0 0.00 0.23 0.23 90 1011.3
20260906013101 73 148 0.0 8.0 0.00 0.23 0.23 92 1011.3
20260906012601 72 43 1.0 8.0 0.00 0.23 0.23 91 1011.4
20260906012059 73 198 0.0 7.0 0.00 0.23 0.23 92 1011.5
20260906011603 72 0 0.0 1.0 0.00 0.23 0.23 92 1011.4
20260906011100 72 0 0.0 2.0 0.00 0.23 0.23 91 1011.3
20260906010559 72 0 0.0 5.0 0.05 0.23 0.23 91 1011.2
20260906005558 72 177 1.0 5.0 0.23 0.23 0.23 90 1010.9
20260906005101 72 101 0.0 2.0 0.23 0.23 0.23 90 1010.9
20260906004613 72 0 0.0 2.0 0.23 0.23 0.23 88 1011.0
20260906004102 72 0 0.0 2.0 0.23 0.23 0.23 89 1011.1
20260906003559 73 101 0.0 2.0 0.23 0.23 0.23 87 1011.2
20260906003104 73 101 0.0 4.0 0.23 0.23 0.23 85 1011.2
20260906002559 74 0 2.0 7.0 0.23 0.23 0.23 84 1011.4
20260906002059 74 32 1.0 9.0 0.23 0.23 0.23 82 1011.5
20260906001603 75 25 3.0 9.0 0.23 0.23 0.23 81 1011.5
20260906001059 76 322 3.0 11.0 0.23 0.23 0.23 78 1011.6
20260906000559 78 107 3.0 41.0 0.18 0.18 0.18 73 1011.8
20260906000111 79 109 9.0 41.0 0.06 0.06 0.06 72 1011.6
20260905235559 83 67 9.0 20.0 0.00 0.00 0.00 67 1012.2
20260905235101 84 17 10.0 24.0 0.00 0.00 0.00 56 1012.9
20260905234605 85 27 9.0 24.0 0.00 0.00 0.00 59 1012.1
20260905234059 88 36 11.0 20.0 0.00 0.00 0.00 58 1011.8
20260905233602 90 47 9.0 15.0 0.00 0.00 0.00 58 1011.7
20260905233104 91 12 1.0 10.0 0.00 0.00 0.00 62 1011.3
20260905232559 91 159 3.0 10.0 0.00 0.00 0.00 61 1010.8
20260905232059 90 157 1.0 5.0 0.00 0.00 0.00 61 1010.9
20260905231603 91 0 0.0 2.0 0.00 0.00 0.00 63 1010.7
20260905231058 91 0 0.0 1.0 0.00 0.00 0.00 64 1010.6
20260905230600 91 0 0.0 1.0 0.00 0.00 0.00 59 1010.6
20260905230108 92 0 0.0 2.0 0.00 0.00 0.00 60 1010.6
20260905225559 92 132 0.0 6.0 0.00 0.00 0.00 60 1010.7
20260905225100 92 69 0.0 6.0 0.00 0.00 0.00 61 1010.9
20260905224608 93 0 0.0 2.0 0.00 0.00 0.00 60 1011.0
20260905224059 93 38 0.0 2.0 0.00 0.00 0.00 59 1010.9
20260905223559 94 0 0.0 2.0 0.00 0.00 0.00 57 1011.0
20260905223106 94 0 0.0 2.0 0.00 0.00 0.00 57 1011.0
20260905222600 94 153 0.0 3.0 0.00 0.00 0.00 56 1010.9
20260905222100 93 88 0.0 4.0 0.00 0.00 0.00 56 1011.0
20260905221559 93 0 1.0 4.0 0.00 0.00 0.00 55 1010.9
20260905221100 93 12 1.0 5.0 0.00 0.00 0.00 55 1010.9
20260905220559 93 66 0.0 5.0 0.00 0.00 0.00 53 1011.0
20260905220121 93 42 1.0 3.0 0.00 0.00 0.00 55 1011.0
20260905215600 94 0 1.0 4.0 0.00 0.00 0.00 55 1011.0
20260905215059 93 0 1.0 5.0 0.00 0.00 0.00 57 1010.9
20260905214605 93 43 2.0 5.0 0.00 0.00 0.00 56 1010.8
20260905214059 93 55 2.0 5.0 0.00 0.00 0.00 57 1010.8
20260905213600 93 40 1.0 3.0 0.00 0.00 0.00 59 1010.8
20260905213108 93 51 0.0 3.0 0.00 0.00 0.00 57 1010.8
20260905212559 92 0 0.0 6.0 0.00 0.00 0.00 57 1010.9
20260905212059 92 78 2.0 6.0 0.00 0.00 0.00 60 1010.8
20260905211604 92 59 2.0 7.0 0.00 0.00 0.00 59 1010.8
20260905211100 92 36 3.0 10.0 0.00 0.00 0.00 60 1010.9
20260905210600 93 26 4.0 10.0 0.00 0.00 0.00 58 1011.1
20260905210104 94 17 4.0 11.0 0.00 0.00 0.00 56 1011.3
20260905205600 94 44 4.0 11.0 0.00 0.00 0.00 56 1011.1
20260905205059 94 16 1.0 4.0 0.00 0.00 0.00 57 1011.2
20260905204605 93 81 0.0 4.0 0.00 0.00 0.00 55 1011.3
20260905204102 93 0 0.0 4.0 0.00 0.00 0.00 60 1011.4
20260905203600 94 24 0.0 3.0 0.00 0.00 0.00 57 1011.4
20260905203107 94 0 1.0 7.0 0.00 0.00 0.00 54 1011.6
20260905202600 94 0 2.0 7.0 0.00 0.00 0.00 55 1011.7
20260905202100 95 49 2.0 6.0 0.00 0.00 0.00 54 1011.7
20260905201603 95 37 0.0 4.0 0.00 0.00 0.00 53 1011.8
20260905201059 95 26 2.0 4.0 0.00 0.00 0.00 53 1011.8
20260905200559 95 0 0.0 4.0 0.00 0.00 0.00 55 1011.8
20260905200100 95 0 0.0 4.0 0.00 0.00 0.00 54 1011.8
20260905195600 96 341 0.0 3.0 0.00 0.00 0.00 53 1011.9
20260905195102 96 11 0.0 3.0 0.00 0.00 0.00 55 1012.0
20260905194607 97 57 1.0 3.0 0.00 0.00 0.00 51 1012.0
20260905194101 97 61 1.0 6.0 0.00 0.00 0.00 49 1012.1
20260905193559 97 243 1.0 6.0 0.00 0.00 0.00 50 1012.3
20260905193101 97 59 2.0 5.0 0.00 0.00 0.00 49 1012.3
20260905192600 97 5 1.0 3.0 0.00 0.00 0.00 51 1012.2
20260905192102 97 12 0.0 4.0 0.00 0.00 0.00 53 1012.2
20260905191603 97 341 1.0 5.0 0.00 0.00 0.00 49 1012.3
20260905191101 98 9 2.0 5.0 0.00 0.00 0.00 47 1012.5
20260905190601 98 0 1.0 4.0 0.00 0.00 0.00 50 1012.5
20260905190113 98 0 1.0 4.0 0.00 0.00 0.00 51 1012.4
20260905185601 97 304 0.0 5.0 0.00 0.00 0.00 49 1012.5
20260905185059 97 257 2.0 5.0 0.00 0.00 0.00 48 1012.7
20260905184604 97 360 1.0 5.0 0.00 0.00 0.00 48 1012.7
20260905184056 97 171 2.0 5.0 0.00 0.00 0.00 53 1012.7
20260905183603 97 245 2.0 4.0 0.00 0.00 0.00 52 1012.8
20260905183124 97 309 1.0 3.0 0.00 0.00 0.00 50 1012.9
20260905182559 97 302 1.0 3.0 0.00 0.00 0.00 50 1013.1
20260905182100 96 267 0.0 4.0 0.00 0.00 0.00 51 1013.2
20260905181606 96 306 0.0 4.0 0.00 0.00 0.00 53 1013.4
20260905181103 96 25 1.0 4.0 0.00 0.00 0.00 55 1013.4
20260905180600 96 314 1.0 4.0 0.00 0.00 0.00 55 1013.6
20260905175559 95 360 1.0 5.0 0.00 0.00 0.00 57 1013.6
20260905175059 95 238 0.0 5.0 0.00 0.00 0.00 57 1013.7
20260905174605 95 32 0.0 3.0 0.00 0.00 0.00 57 1013.7
20260905174100 95 338 0.0 3.0 0.00 0.00 0.00 56 1013.7
20260905173559 95 272 1.0 3.0 0.00 0.00 0.00 56 1013.7
20260905173103 96 312 1.0 3.0 0.00 0.00 0.00 59 1013.8
20260905172558 95 269 1.0 3.0 0.00 0.00 0.00 58 1013.8
20260905172100 95 167 1.0 3.0 0.00 0.00 0.00 59 1013.8
20260905171605 94 34 0.0 3.0 0.00 0.00 0.00 60 1014.0
20260905171059 94 5 0.0 3.0 0.00 0.00 0.00 58 1013.9
20260905170559 94 156 1.0 4.0 0.00 0.00 0.00 58 1013.9
20260905165602 93 348 1.0 4.0 0.00 0.00 0.00 62 1014.1
20260905165059 93 246 1.0 3.0 0.00 0.00 0.00 61 1014.0
20260905164615 93 5 1.0 3.0 0.00 0.00 0.00 62 1014.0
20260905164058 92 0 1.0 3.0 0.00 0.00 0.00 62 1014.2
20260905163600 92 313 0.0 3.0 0.00 0.00 0.00 63 1014.2
20260905163106 91 0 1.0 4.0 0.00 0.00 0.00 64 1014.3
20260905162600 91 0 1.0 4.0 0.00 0.00 0.00 63 1014.3
20260905162059 91 328 0.0 3.0 0.00 0.00 0.00 63 1014.4
20260905161613 91 0 0.0 3.0 0.00 0.00 0.00 65 1014.4
20260905161100 91 0 1.0 3.0 0.00 0.00 0.00 65 1014.4
20260905160559 90 217 0.0 3.0 0.00 0.00 0.00 66 1014.5
20260905160123 90 5 0.0 2.0 0.00 0.00 0.00 66 1014.6
20260905155559 90 5 1.0 3.0 0.00 0.00 0.00 66 1014.5
20260905155059 89 0 0.0 3.0 0.00 0.00 0.00 67 1014.6
20260905154607 89 0 0.0 2.0 0.00 0.00 0.00 69 1014.6
20260905154101 88 0 0.0 2.0 0.00 0.00 0.00 71 1014.7
20260905153558 88 0 0.0 2.0 0.00 0.00 0.00 71 1014.7
20260905153115 87 5 0.0 2.0 0.00 0.00 0.00 72 1014.7
20260905152600 87 0 0.0 2.0 0.00 0.00 0.00 72 1014.7
20260905152103 87 0 0.0 3.0 0.00 0.00 0.00 74 1014.7
20260905151609 86 0 0.0 3.0 0.00 0.00 0.00 75 1014.8
20260905151100 86 0 0.0 3.0 0.00 0.00 0.00 75 1014.8
20260905150559 85 0 0.0 4.0 0.00 0.00 0.00 76 1014.8
20260905150101 85 0 1.0 4.0 0.00 0.00 0.00 75 1014.8
20260905145556 84 156 1.0 3.0 0.00 0.00 0.00 77 1014.9
20260905145102 83 281 0.0 2.0 0.00 0.00 0.00 81 1014.9
20260905144602 82 0 0.0 1.0 0.00 0.00 0.00 82 1014.9
20260905144059 82 0 0.0 2.0 0.00 0.00 0.00 82 1014.9
20260905143559 81 0 0.0 2.0 0.00 0.00 0.00 82 1015.0
20260905143100 81 0 0.0 1.0 0.00 0.00 0.00 83 1015.0
20260905142559 81 0 0.0 1.0 0.00 0.00 0.00 82 1015.0
20260905142059 80 261 0.0 2.0 0.00 0.00 0.00 83 1014.9
20260905141559 80 261 0.0 2.0 0.00 0.00 0.00 82 1014.9
20260905141059 80 0 0.0 4.0 0.00 0.00 0.00 83 1014.9
20260905140559 80 0 1.0 4.0 0.00 0.00 0.00 83 1014.8
20260905140108 80 166 1.0 4.0 0.00 0.00 0.00 83 1014.9
20260905135559 80 165 1.0 3.0 0.00 0.00 0.00 83 1015.0
20260905135059 80 0 0.0 2.0 0.00 0.00 0.00 83 1015.0
20260905134601 80 0 0.0 3.0 0.00 0.00 0.00 83 1014.9
20260905134100 80 182 0.0 3.0 0.00 0.00 0.00 83 1014.9
20260905133600 80 195 0.0 3.0 0.00 0.00 0.00 83 1015.0
20260905133106 79 0 0.0 0.0 0.00 0.00 0.00 84 1015.0
20260905132559 79 0 0.0 0.0 0.00 0.00 0.00 84 1015.1
20260905132100 79 0 0.0 0.0 0.00 0.00 0.00 85 1015.0
20260905131610 79 0 0.0 0.0 0.00 0.00 0.00 85 1015.0
20260905131059 79 0 0.0 0.0 0.00 0.00 0.00 85 1015.1
20260905130559 78 0 0.0 0.0 0.00 0.00 0.00 86 1015.1
20260905130110 78 0 0.0 0.0 0.00 0.00 0.00 86 1015.0
20260905125559 78 0 0.0 0.0 0.00 0.00 0.00 86 1015.0
20260905125059 78 0 0.0 0.0 0.00 0.00 0.00 86 1015.1
20260905124603 77 0 0.0 0.0 0.00 0.00 0.00 87 1015.1
20260905124059 77 0 0.0 0.0 0.00 0.00 0.00 87 1015.1
20260905123559 77 0 0.0 0.0 0.00 0.00 0.00 88 1015.1
20260905123102 76 0 0.0 0.0 0.00 0.00 0.00 89 1015.0
20260905122600 76 0 0.0 0.0 0.00 0.00 0.00 90 1015.0
20260905122100 75 0 0.0 0.0 0.00 0.00 0.00 90 1015.0
20260905121602 75 0 0.0 0.0 0.00 0.00 0.00 90 1014.9
20260905121059 74 0 0.0 0.0 0.00 0.00 0.00 90 1014.9
20260905120600 74 0 0.0 0.0 0.00 0.00 0.00 90 1014.9
20260905120112 74 0 0.0 0.0 0.00 0.00 0.00 90 1014.8
20260905115601 74 0 0.0 0.0 0.00 0.00 0.00 91 1014.9
20260905115100 74 0 0.0 0.0 0.00 0.00 0.00 91 1014.7
20260905114606 74 0 0.0 0.0 0.00 0.00 0.00 91 1014.7
20260905114059 74 0 0.0 0.0 0.00 0.00 0.00 91 1014.7
20260905113559 74 0 0.0 0.0 0.00 0.00 0.00 91 1014.7
20260905113105 74 0 0.0 0.0 0.00 0.00 0.00 91 1014.6
20260905112604 74 0 0.0 0.0 0.00 0.00 0.00 90 1014.5
20260905112100 74 0 0.0 0.0 0.00 0.00 0.00 91 1014.4
20260905111612 74 0 0.0 0.0 0.00 0.00 0.00 90 1014.3
20260905111100 74 0 0.0 0.0 0.00 0.00 0.00 90 1014.1
20260905110606 74 0 0.0 0.0 0.00 0.00 0.00 90 1014.0
20260905110105 74 0 0.0 0.0 0.00 0.00 0.00 90 1013.9
20260905105600 74 0 0.0 0.0 0.00 0.00 0.00 90 1013.9
20260905105100 74 0 0.0 0.0 0.00 0.00 0.00 90 1013.8
20260905104558 74 0 0.0 0.0 0.00 0.00 0.00 90 1013.8
20260905104102 74 0 0.0 0.0 0.00 0.00 0.00 89 1013.8
20260905103601 74 0 0.0 0.0 0.00 0.00 0.00 89 1013.8
20260905103059 74 0 0.0 0.0 0.00 0.00 0.00 89 1013.8
20260905102559 74 0 0.0 0.0 0.00 0.00 0.00 89 1013.8
20260905102100 74 0 0.0 0.0 0.00 0.00 0.00 89 1013.8
20260905101606 74 0 0.0 0.0 0.00 0.00 0.00 89 1013.6
20260905101059 74 0 0.0 0.0 0.00 0.00 0.00 89 1013.8
20260905100559 74 0 0.0 0.0 0.00 0.00 0.00 89 1013.8
20260905100100 74 0 0.0 0.0 0.00 0.00 0.00 89 1013.8
20260905095600 74 0 0.0 0.0 0.00 0.00 0.00 89 1013.7
20260905095059 74 0 0.0 0.0 0.00 0.00 0.00 89 1013.7
20260905094602 74 0 0.0 0.0 0.00 0.00 0.00 89 1013.7
20260905094103 74 0 0.0 0.0 0.00 0.00 0.00 89 1013.7
20260905093556 74 0 0.0 0.0 0.00 0.00 0.00 89 1013.7
20260905093102 74 0 0.0 0.0 0.00 0.00 0.00 89 1013.6
20260905092559 74 0 0.0 0.0 0.00 0.00 0.00 89 1013.5
20260905092059 74 0 0.0 0.0 0.00 0.00 0.00 89 1013.6
20260905091606 74 0 0.0 0.0 0.00 0.00 0.00 89 1013.6
20260905091059 74 0 0.0 0.0 0.00 0.00 0.00 89 1013.7
20260905090559 75 0 0.0 0.0 0.00 0.00 0.00 88 1013.7
20260905085600 75 0 0.0 0.0 0.00 0.00 0.00 88 1013.6
20260905085059 75 0 0.0 0.0 0.00 0.00 0.00 88 1013.7
20260905084620 75 0 0.0 0.0 0.00 0.00 0.00 88 1013.7
20260905084102 75 0 0.0 0.0 0.00 0.00 0.00 88 1013.7
20260905083558 75 0 0.0 0.0 0.00 0.00 0.00 88 1013.8
20260905083100 75 0 0.0 0.0 0.00 0.00 0.00 88 1013.7
20260905082600 75 0 0.0 0.0 0.00 0.00 0.00 87 1013.8
20260905082101 75 0 0.0 0.0 0.00 0.00 0.00 87 1013.7
20260905081603 75 0 0.0 0.0 0.00 0.00 0.00 87 1013.8
20260905081102 75 0 0.0 0.0 0.00 0.00 0.00 87 1013.8
20260905080600 75 0 0.0 0.0 0.00 0.00 0.00 87 1013.7
20260905080059 76 0 0.0 0.0 0.00 0.00 0.00 87 1013.8
20260905075604 76 0 0.0 2.0 0.00 0.00 0.00 87 1013.7
20260905075103 76 0 0.0 2.0 0.00 0.00 0.00 87 1013.6
20260905074605 76 0 0.0 2.0 0.00 0.00 0.00 87 1013.6
20260905074100 76 0 0.0 2.0 0.00 0.00 0.00 87 1013.7
20260905073559 76 0 0.0 2.0 0.00 0.00 0.00 87 1013.7
20260905073106 76 125 0.0 2.0 0.00 0.00 0.00 87 1013.8
20260905072601 76 0 0.0 1.0 0.00 0.00 0.00 87 1013.8
20260905072100 76 0 0.0 1.0 0.00 0.00 0.00 87 1013.8
20260905071600 76 0 0.0 0.0 0.00 0.00 0.00 86 1013.8
20260905071103 76 0 0.0 0.0 0.00 0.00 0.00 86 1013.8
20260905070559 76 0 0.0 0.0 0.00 0.00 0.00 86 1013.8
20260905070105 76 0 0.0 0.0 0.00 0.00 0.00 86 1013.9
20260905065602 77 0 0.0 0.0 0.00 0.00 0.00 85 1013.8
20260905065059 77 0 0.0 0.0 0.00 0.00 0.00 86 1013.9
20260905064602 77 0 0.0 0.0 0.00 0.00 0.00 85 1013.9
20260905064103 77 0 0.0 0.0 0.00 0.00 0.00 85 1014.0
20260905063601 77 0 0.0 0.0 0.00 0.00 0.00 85 1014.0
20260905063111 77 0 0.0 0.0 0.00 0.00 0.00 85 1014.1
20260905062602 77 0 0.0 1.0 0.00 0.00 0.00 85 1014.0
20260905062104 77 0 0.0 1.0 0.00 0.00 0.00 85 1014.0
20260905061610 77 0 0.0 0.0 0.00 0.00 0.00 85 1014.0
20260905061059 77 0 0.0 0.0 0.00 0.00 0.00 85 1014.1
20260905060603 77 0 0.0 1.0 0.00 0.00 0.00 85 1014.2
20260905060106 77 0 0.0 2.0 0.00 0.00 0.00 84 1014.1
20260905055559 78 0 0.0 2.0 0.00 0.00 0.00 84 1014.1
20260905055102 78 0 0.0 4.0 0.00 0.00 0.00 84 1014.0
20260905054603 78 0 1.0 4.0 0.00 0.00 0.00 84 1014.0
20260905054059 78 177 0.0 2.0 0.00 0.00 0.00 84 1014.0
20260905053559 78 0 0.0 1.0 0.00 0.00 0.00 83 1014.1
20260905053141 78 0 0.0 1.0 0.00 0.00 0.00 83 1014.0
20260905052603 78 0 0.0 1.0 0.00 0.00 0.00 83 1014.0
20260905052059 78 0 0.0 0.0 0.00 0.00 0.00 82 1013.9
20260905051607 78 0 0.0 1.0 0.00 0.00 0.00 83 1014.0
20260905051059 78 0 0.0 1.0 0.00 0.00 0.00 83 1013.9
20260905050600 78 0 0.0 1.0 0.00 0.00 0.00 82 1013.9
20260905045603 79 0 0.0 2.0 0.00 0.00 0.00 81 1013.8
20260905045059 79 177 0.0 3.0 0.00 0.00 0.00 81 1013.9
20260905044603 79 0 1.0 4.0 0.00 0.00 0.00 81 1013.9
20260905044059 79 177 2.0 4.0 0.00 0.00 0.00 81 1014.0
20260905043602 79 133 1.0 2.0 0.00 0.00 0.00 80 1014.1
20260905043103 79 0 0.0 0.0 0.00 0.00 0.00 80 1014.2
20260905042559 80 0 0.0 0.0 0.00 0.00 0.00 79 1014.2
20260905042100 80 0 0.0 0.0 0.00 0.00 0.00 79 1014.2
20260905041615 80 0 0.0 0.0 0.00 0.00 0.00 79 1014.2
20260905041059 80 0 0.0 0.0 0.00 0.00 0.00 78 1014.3
20260905040602 81 0 0.0 0.0 0.00 0.00 0.00 78 1014.3
20260905040105 81 0 0.0 1.0 0.00 0.00 0.00 77 1014.4
20260905035559 81 0 0.0 3.0 0.00 0.00 0.00 77 1014.4
20260905035059 81 0 1.0 3.0 0.00 0.00 0.00 76 1014.5
20260905034604 81 133 0.0 2.0 0.00 0.00 0.00 76 1014.5
20260905034059 81 133 0.0 1.0 0.00 0.00 0.00 76 1014.5
20260905033602 81 0 0.0 2.0 0.00 0.00 0.00 76 1014.7
20260905033106 81 0 0.0 2.0 0.00 0.00 0.00 76 1014.7
20260905032600 82 46 0.0 1.0 0.00 0.00 0.00 76 1014.7
20260905032104 82 0 0.0 2.0 0.00 0.00 0.00 75 1014.8
20260905031600 82 46 0.0 3.0 0.00 0.00 0.00 75 1014.7
20260905031059 82 0 1.0 3.0 0.00 0.00 0.00 74 1014.7
20260905030559 82 213 1.0 2.0 0.00 0.00 0.00 74 1014.6
20260905030107 83 0 0.0 0.0 0.00 0.00 0.00 73 1014.6
20260905025601 83 0 0.0 3.0 0.00 0.00 0.00 73 1014.5
20260905025059 83 0 0.0 3.0 0.00 0.00 0.00 72 1014.5
20260905024623 84 213 1.0 3.0 0.00 0.00 0.00 72 1014.6
20260905024116 84 188 1.0 3.0 0.00 0.00 0.00 71 1014.7
20260905023602 84 188 2.0 3.0 0.00 0.00 0.00 71 1014.7
20260905023125 84 184 1.0 3.0 0.00 0.00 0.00 71 1014.8
20260905022559 84 219 1.0 3.0 0.00 0.00 0.00 71 1014.7